Location: Unspecified
(41.9031°N, 12.4386°E)
Time: 05:49:05
(UTC+01:00)

ISS - Pass Details

Date: 08 December 2019
Orbit: 411 x 421 km, 51.6° (Epoch: 15 December)

Event Time Altitude Azimuth Distance (km) Brightness Sun altitude
Rises 18:25:10 0° 304° (NW) 2,360 0.7 -19.1°
Reaches altitude 10° 18:27:16 10° 303° (WNW) 1,496 -0.4 -19.5°
Maximum altitude 18:30:38 82° 218° (SW) 426 -3.8 -20.1°
Enters shadow 18:30:48 77° 166° (SSE) 432 -3.8 -20.1°
